Tracking 22438 objects as of 24-Feb-2021
HD Live streaming from Space Station
objects crossing your sky now

DELTA 1 DEB

Track DELTA 1 DEB now!
10-day predictions


NORAD ID: 21433
Int'l Code: 1975-052DR
Perigee: 1,038.1 km
Apogee: 1,126.7 km
Inclination: 99.6 °
Period: 106.7 minutes
Semi major axis: 7453 km
RCS: 0.129 m2 (medium)
Launch date: June 12, 1975
Source: United States (US)
Launch site: AIR FORCE WESTERN TEST RANGE (AFWTR)

Note: This is SATELLITE DEBRIS
aabbcc
Your satellite tracking list
Your tracking list is empty




NASA's NSSDC Master Catalog

Two Line Element Set (TLE):
1 21433U 75052DR  21055.77783660  .00000073  00000-0  18205-3 0  9998
2 21433  99.6353 251.7405 0059483  17.0523  46.6881 13.49184297466873
Source of the keplerian elements: AFSPC